BIELK01 EPDE-EPKK

Flight info

Callsign BIELK01
Flight time 1h 16m
Altitude 2500
Route EPDES EPDEG EPDEP EPKKM EPKKI EPPKZ STAY01/0050
Aircraft M346/M-G/LB1

Departure

Time 2026-05-06 15:45
Airport Deblin Military Air Base (EPDE)

Arrival

Time 2026-05-06 17:02
Airport Kraków John Paul II International Airport (EPKK)
Time Latitude Longitude Altitude Speed Heading
2026-05-06 15:39 51.54561 21.89696 382 ft 0 kts 212°
2026-05-06 15:40 51.54560 21.89696 382 ft 0 kts 209°
2026-05-06 15:41 51.54558 21.89694 380 ft 2 kts 195°
2026-05-06 15:41 51.54536 21.89717 382 ft 5 kts 114°
2026-05-06 15:41 51.54545 21.89758 382 ft 5 kts 33°
2026-05-06 15:41 51.54572 21.89784 382 ft 4 kts 32°
2026-05-06 15:42 51.54602 21.89813 382 ft 6 kts 31°
2026-05-06 15:42 51.54622 21.89852 382 ft 4 kts 91°
2026-05-06 15:42 51.54602 21.89914 382 ft 7 kts 121°
2026-05-06 15:42 51.54576 21.89985 382 ft 8 kts 121°
2026-05-06 15:43 51.54545 21.90068 382 ft 13 kts 121°
2026-05-06 15:43 51.54499 21.90190 382 ft 12 kts 121°
2026-05-06 15:43 51.54457 21.90304 382 ft 11 kts 120°
2026-05-06 15:43 51.54425 21.90404 382 ft 9 kts 94°
2026-05-06 15:44 51.54461 21.90472 382 ft 9 kts 31°
2026-05-06 15:44 51.54500 21.90510 382 ft 5 kts 31°
2026-05-06 15:44 51.54536 21.90547 381 ft 10 kts 32°
2026-05-06 15:44 51.54599 21.90576 380 ft 9 kts 317°
2026-05-06 15:45 51.54619 21.90532 380 ft 9 kts 301°
2026-05-06 15:45 51.54969 21.89600 408 ft 169 kts 299°
2026-05-06 15:45 51.55617 21.87882 838 ft 188 kts 300°
2026-05-06 15:45 51.55795 21.85855 1501 ft 219 kts 225°
2026-05-06 15:46 51.54317 21.85435 1777 ft 213 kts 169°
2026-05-06 15:46 51.53013 21.86225 2033 ft 200 kts 159°
2026-05-06 15:46 51.51755 21.87192 2296 ft 204 kts 154°
2026-05-06 15:46 51.50549 21.88500 2470 ft 217 kts 149°
2026-05-06 15:47 51.49283 21.89967 2499 ft 237 kts 148°
2026-05-06 15:47 51.47867 21.91448 2568 ft 241 kts 162°
2026-05-06 15:47 51.46307 21.92154 2552 ft 231 kts 170°
2026-05-06 15:47 51.44726 21.92746 2516 ft 233 kts 171°
2026-05-06 15:48 51.43178 21.93291 2507 ft 223 kts 172°
2026-05-06 15:48 51.41707 21.93756 2455 ft 212 kts 172°
2026-05-06 15:48 51.40303 21.94213 2429 ft 207 kts 172°
2026-05-06 15:48 51.38844 21.94683 2497 ft 223 kts 172°
2026-05-06 15:49 51.37283 21.95180 2517 ft 227 kts 171°
2026-05-06 15:49 51.35773 21.95443 2504 ft 216 kts 186°
2026-05-06 15:49 51.34326 21.95100 2518 ft 206 kts 196°
2026-05-06 15:49 51.33112 21.94112 2493 ft 192 kts 220°
2026-05-06 15:50 51.32154 21.92718 2509 ft 188 kts 226°
2026-05-06 15:50 51.31208 21.91084 2527 ft 206 kts 229°
2026-05-06 15:50 51.30255 21.89309 2528 ft 220 kts 230°
2026-05-06 15:50 51.29218 21.87288 2515 ft 237 kts 231°
2026-05-06 15:51 51.28222 21.85354 2528 ft 220 kts 231°
2026-05-06 15:51 51.27284 21.83490 2512 ft 210 kts 231°
2026-05-06 15:51 51.26371 21.81687 2528 ft 209 kts 231°
2026-05-06 15:51 51.25460 21.79879 2503 ft 208 kts 231°
2026-05-06 15:52 51.24846 21.78669 2505 ft 207 kts 231°
2026-05-06 15:52 51.23937 21.76900 2511 ft 217 kts 231°
2026-05-06 15:52 51.22941 21.74976 2521 ft 226 kts 231°
2026-05-06 15:52 51.21962 21.73077 2517 ft 213 kts 231°
2026-05-06 15:53 51.21021 21.71259 2511 ft 213 kts 230°
2026-05-06 15:53 51.20086 21.69437 2531 ft 212 kts 230°
2026-05-06 15:53 51.19141 21.67612 2521 ft 214 kts 231°
2026-05-06 15:53 51.18197 21.65778 2511 ft 214 kts 230°
2026-05-06 15:54 51.17256 21.63954 2513 ft 213 kts 231°
2026-05-06 15:54 51.16320 21.62137 2510 ft 211 kts 230°
2026-05-06 15:54 51.15398 21.60322 2523 ft 210 kts 231°
2026-05-06 15:54 51.14470 21.58525 2512 ft 209 kts 230°
2026-05-06 15:55 51.13560 21.56746 2519 ft 206 kts 230°
2026-05-06 15:55 51.12666 21.54977 2525 ft 204 kts 231°
2026-05-06 15:55 51.11778 21.53232 2528 ft 202 kts 231°
2026-05-06 15:55 51.10902 21.51493 2536 ft 201 kts 230°
2026-05-06 15:56 51.10035 21.49760 2518 ft 199 kts 231°
2026-05-06 15:56 51.09173 21.48055 2539 ft 197 kts 231°
2026-05-06 15:56 51.08276 21.46259 2533 ft 212 kts 230°
2026-05-06 15:56 51.07398 21.44499 2514 ft 194 kts 231°
2026-05-06 15:57 51.06549 21.42824 2535 ft 196 kts 230°
2026-05-06 15:57 51.05698 21.41122 2539 ft 193 kts 231°
2026-05-06 15:57 51.04836 21.39433 2541 ft 204 kts 230°
2026-05-06 15:57 51.03946 21.37654 2532 ft 202 kts 230°
2026-05-06 15:58 51.03055 21.36025 2520 ft 189 kts 216°
2026-05-06 15:58 51.01796 21.34977 2523 ft 220 kts 206°
2026-05-06 15:58 51.00432 21.34011 2543 ft 209 kts 204°
2026-05-06 15:58 50.99142 21.33131 2535 ft 196 kts 204°
2026-05-06 15:59 50.97817 21.32268 2543 ft 219 kts 204°
2026-05-06 15:59 50.96356 21.31315 2541 ft 224 kts 204°
2026-05-06 15:59 50.94930 21.30385 2539 ft 224 kts 204°
2026-05-06 15:59 50.93547 21.29506 2536 ft 200 kts 204°
2026-05-06 16:00 50.92288 21.28705 2528 ft 197 kts 203°
2026-05-06 16:00 50.90994 21.27881 2527 ft 206 kts 204°
2026-05-06 16:00 50.89655 21.27057 2536 ft 203 kts 204°
2026-05-06 16:00 50.88360 21.26231 2547 ft 201 kts 204°
2026-05-06 16:01 50.87054 21.25399 2525 ft 205 kts 203°
2026-05-06 16:01 50.85723 21.24514 2548 ft 209 kts 203°
2026-05-06 16:01 50.84400 21.23643 2553 ft 204 kts 204°
2026-05-06 16:01 50.83073 21.22531 2531 ft 231 kts 215°
2026-05-06 16:02 50.81910 21.21050 2531 ft 200 kts 221°
2026-05-06 16:02 50.80933 21.19638 2550 ft 194 kts 222°
2026-05-06 16:02 50.79943 21.18138 2553 ft 204 kts 223°
2026-05-06 16:02 50.78904 21.16554 2552 ft 210 kts 223°
2026-05-06 16:03 50.77880 21.14967 2541 ft 208 kts 224°
2026-05-06 16:03 50.76819 21.13329 2546 ft 212 kts 224°
2026-05-06 16:03 50.75762 21.11689 2539 ft 219 kts 224°
2026-05-06 16:03 50.74632 21.09955 2545 ft 231 kts 224°
2026-05-06 16:04 50.73476 21.08191 2545 ft 229 kts 223°
2026-05-06 16:04 50.72374 21.06493 2555 ft 212 kts 224°
2026-05-06 16:04 50.71332 21.04895 2567 ft 214 kts 223°
2026-05-06 16:04 50.70231 21.03214 2569 ft 220 kts 224°
2026-05-06 16:05 50.69148 21.01597 2549 ft 209 kts 223°
2026-05-06 16:05 50.68107 21.00040 2549 ft 200 kts 224°
2026-05-06 16:05 50.67108 20.98554 2544 ft 193 kts 223°
2026-05-06 16:05 50.66149 20.97107 2544 ft 199 kts 223°
2026-05-06 16:06 50.65175 20.95668 2562 ft 178 kts 223°
2026-05-06 16:06 50.64169 20.94187 2553 ft 212 kts 224°
2026-05-06 16:06 50.63083 20.92569 2570 ft 220 kts 223°
2026-05-06 16:06 50.61984 20.90932 2563 ft 218 kts 223°
2026-05-06 16:07 50.60900 20.89309 2570 ft 207 kts 224°
2026-05-06 16:07 50.59878 20.87805 2557 ft 193 kts 224°
2026-05-06 16:07 50.58954 20.86420 2561 ft 174 kts 224°
2026-05-06 16:07 50.58005 20.85023 2561 ft 192 kts 224°
2026-05-06 16:08 50.57018 20.83563 2541 ft 198 kts 223°
2026-05-06 16:08 50.55984 20.82012 2551 ft 221 kts 223°
2026-05-06 16:08 50.54851 20.80323 2574 ft 221 kts 223°
2026-05-06 16:08 50.53791 20.78733 2575 ft 203 kts 223°
2026-05-06 16:09 50.52775 20.77211 2571 ft 208 kts 223°
2026-05-06 16:09 50.51717 20.75625 2575 ft 234 kts 223°
2026-05-06 16:09 50.50574 20.73926 2559 ft 218 kts 224°
2026-05-06 16:09 50.49495 20.72328 2563 ft 208 kts 223°
2026-05-06 16:10 50.48558 20.70785 2542 ft 192 kts 236°
2026-05-06 16:10 50.47899 20.68913 2560 ft 205 kts 243°
2026-05-06 16:10 50.47267 20.66789 2579 ft 213 kts 245°
2026-05-06 16:10 50.46667 20.64629 2583 ft 216 kts 245°
2026-05-06 16:11 50.46092 20.62508 2563 ft 209 kts 246°
2026-05-06 16:11 50.45488 20.60245 2555 ft 226 kts 246°
2026-05-06 16:11 50.44878 20.57948 2573 ft 231 kts 246°
2026-05-06 16:11 50.44254 20.55603 2547 ft 236 kts 246°
2026-05-06 16:12 50.43630 20.53301 2556 ft 223 kts 246°
2026-05-06 16:12 50.43020 20.51057 2547 ft 225 kts 246°
2026-05-06 16:12 50.42403 20.48813 2548 ft 227 kts 247°
2026-05-06 16:12 50.41840 20.46409 2560 ft 230 kts 250°
2026-05-06 16:13 50.41325 20.44081 2542 ft 222 kts 250°
2026-05-06 16:13 50.40809 20.41803 2537 ft 220 kts 249°
2026-05-06 16:13 50.40309 20.39613 2565 ft 212 kts 249°
2026-05-06 16:13 50.39818 20.37437 2555 ft 209 kts 249°
2026-05-06 16:14 50.39334 20.35314 2565 ft 211 kts 249°
2026-05-06 16:14 50.38819 20.33043 2564 ft 223 kts 249°
2026-05-06 16:14 50.38274 20.30677 2579 ft 235 kts 249°
2026-05-06 16:14 50.37765 20.28415 2563 ft 213 kts 251°
2026-05-06 16:15 50.37362 20.26144 2566 ft 210 kts 255°
2026-05-06 16:15 50.37040 20.23840 2547 ft 216 kts 257°
2026-05-06 16:15 50.36760 20.21509 2566 ft 218 kts 258°
2026-05-06 16:15 50.36488 20.19209 2547 ft 207 kts 258°
2026-05-06 16:16 50.36233 20.16963 2562 ft 212 kts 258°
2026-05-06 16:16 50.35989 20.14735 2567 ft 203 kts 258°
2026-05-06 16:16 50.35767 20.12647 2562 ft 185 kts 258°
2026-05-06 16:16 50.35555 20.10666 2574 ft 202 kts 258°
2026-05-06 16:17 50.35300 20.08346 2559 ft 224 kts 258°
2026-05-06 16:17 50.35036 20.06038 2572 ft 208 kts 258°
2026-05-06 16:17 50.34793 20.03947 2573 ft 188 kts 258°
2026-05-06 16:17 50.34567 20.02050 2564 ft 177 kts 255°
2026-05-06 16:18 50.34204 19.99995 2552 ft 209 kts 251°
2026-05-06 16:18 50.33712 19.97799 2564 ft 217 kts 246°
2026-05-06 16:18 50.33120 19.95675 2563 ft 208 kts 244°
2026-05-06 16:18 50.32508 19.93693 2566 ft 202 kts 243°
2026-05-06 16:19 50.31863 19.91629 2552 ft 218 kts 243°
2026-05-06 16:19 50.31185 19.89560 2543 ft 210 kts 241°
2026-05-06 16:19 50.30451 19.87450 2573 ft 221 kts 239°
2026-05-06 16:19 50.29695 19.85481 2545 ft 198 kts 238°
2026-05-06 16:20 50.29010 19.83758 2548 ft 191 kts 237°
2026-05-06 16:20 50.28306 19.81959 2534 ft 196 kts 240°
2026-05-06 16:20 50.27678 19.80083 2527 ft 191 kts 243°
2026-05-06 16:20 50.27132 19.78247 2518 ft 184 kts 244°
2026-05-06 16:21 50.26604 19.76384 2500 ft 185 kts 245°
2026-05-06 16:21 50.26055 19.74650 2428 ft 169 kts 240°
2026-05-06 16:21 50.25436 19.73194 2431 ft 155 kts 234°
2026-05-06 16:21 50.24781 19.71843 2442 ft 163 kts 231°
2026-05-06 16:22 50.23976 19.70384 2400 ft 186 kts 227°
2026-05-06 16:22 50.23121 19.68873 2523 ft 188 kts 227°
2026-05-06 16:22 50.22080 19.67401 2411 ft 213 kts 218°
2026-05-06 16:22 50.20850 19.66188 2384 ft 201 kts 205°
2026-05-06 16:23 50.19465 19.66074 2120 ft 208 kts 160°
2026-05-06 16:23 50.18169 19.67205 1968 ft 210 kts 154°
2026-05-06 16:23 50.16955 19.68333 1926 ft 196 kts 154°
2026-05-06 16:23 50.15807 19.69411 1792 ft 190 kts 152°
2026-05-06 16:24 50.14766 19.70561 1819 ft 186 kts 141°
2026-05-06 16:24 50.13876 19.72108 1911 ft 200 kts 129°
2026-05-06 16:24 50.13001 19.73951 1902 ft 219 kts 131°
2026-05-06 16:24 50.12093 19.75844 1777 ft 213 kts 131°
2026-05-06 16:25 50.11165 19.77576 1823 ft 210 kts 126°
2026-05-06 16:25 50.10853 19.79618 2011 ft 204 kts 81°
2026-05-06 16:25 50.11033 19.81904 2104 ft 226 kts 83°
2026-05-06 16:25 50.10670 19.84009 1640 ft 190 kts 151°
2026-05-06 16:26 50.09601 19.84268 1469 ft 148 kts 188°
2026-05-06 16:26 50.08625 19.83790 1337 ft 157 kts 232°
2026-05-06 16:26 50.08289 19.82215 1115 ft 151 kts 258°
2026-05-06 16:26 50.08083 19.80639 922 ft 144 kts 252°
2026-05-06 16:27 50.07878 19.79211 801 ft 133 kts 256°
2026-05-06 16:27 50.07617 19.77359 1084 ft 201 kts 256°
2026-05-06 16:27 50.07321 19.75205 1461 ft 196 kts 272°
2026-05-06 16:27 50.08192 19.73831 1716 ft 190 kts 344°
2026-05-06 16:28 50.09471 19.73328 1752 ft 190 kts
2026-05-06 16:28 50.10361 19.74605 1841 ft 189 kts 75°
2026-05-06 16:28 50.10782 19.76548 1792 ft 189 kts 79°
2026-05-06 16:28 50.11105 19.78464 1671 ft 187 kts 79°
2026-05-06 16:29 50.11689 19.80354 1606 ft 212 kts 36°
2026-05-06 16:29 50.12932 19.80095 1492 ft 189 kts 290°
2026-05-06 16:29 50.12831 19.78218 1491 ft 167 kts 257°
2026-05-06 16:29 50.12534 19.76512 1533 ft 158 kts 255°
2026-05-06 16:30 50.12213 19.74991 1465 ft 157 kts 236°
2026-05-06 16:30 50.11584 19.74453 1429 ft 164 kts 176°
2026-05-06 16:30 50.10939 19.76441 1531 ft 175 kts 96°
2026-05-06 16:30 50.10994 19.78273 1667 ft 181 kts 77°
2026-05-06 16:31 50.11312 19.80163 1659 ft 177 kts 70°
2026-05-06 16:31 50.12312 19.81264 1702 ft 192 kts 352°
2026-05-06 16:31 50.13169 19.80021 1667 ft 176 kts 277°
2026-05-06 16:31 50.12939 19.78106 1592 ft 177 kts 253°
2026-05-06 16:32 50.12633 19.76287 1600 ft 171 kts 253°
2026-05-06 16:32 50.12320 19.74628 1554 ft 155 kts 239°
2026-05-06 16:32 50.11281 19.74115 1563 ft 191 kts 146°
2026-05-06 16:32 50.10916 19.76063 1615 ft 195 kts 95°
2026-05-06 16:33 50.10905 19.78259 1704 ft 211 kts 81°
2026-05-06 16:33 50.11207 19.80502 1798 ft 207 kts 79°
2026-05-06 16:33 50.11502 19.82551 1642 ft 189 kts 84°
2026-05-06 16:34 50.09963 19.84619 1470 ft 148 kts 167°
2026-05-06 16:34 50.09020 19.84909 1355 ft 133 kts 188°
2026-05-06 16:34 50.08509 19.83979 1221 ft 137 kts 254°
2026-05-06 16:34 50.08353 19.82575 1109 ft 127 kts 250°
2026-05-06 16:35 50.08146 19.81191 1021 ft 137 kts 253°
2026-05-06 16:35 50.07957 19.79784 830 ft 124 kts 250°
2026-05-06 16:35 50.07785 19.78537 816 ft 137 kts 257°
2026-05-06 16:35 50.07573 19.76732 1193 ft 194 kts 256°
2026-05-06 16:36 50.07382 19.74544 1649 ft 217 kts 286°
2026-05-06 16:36 50.08568 19.73305 1836 ft 219 kts 346°
2026-05-06 16:36 50.09887 19.73506 1839 ft 194 kts 48°
2026-05-06 16:36 50.10440 19.75261 1728 ft 179 kts 73°
2026-05-06 16:37 50.10738 19.77116 1840 ft 165 kts 78°
2026-05-06 16:37 50.10983 19.78844 1783 ft 180 kts 79°
2026-05-06 16:37 50.11276 19.80971 1874 ft 207 kts 78°
2026-05-06 16:37 50.11590 19.83042 1761 ft 199 kts 94°
2026-05-06 16:38 50.10818 19.84411 1733 ft 176 kts 167°
2026-05-06 16:38 50.09748 19.84883 1665 ft 144 kts 167°
2026-05-06 16:38 50.09125 19.85170 1549 ft 142 kts 175°
2026-05-06 16:38 50.08473 19.84452 1283 ft 134 kts 269°
2026-05-06 16:39 50.08399 19.83066 1154 ft 125 kts 259°
2026-05-06 16:39 50.08211 19.81741 1095 ft 127 kts 261°
2026-05-06 16:39 50.08040 19.80441 932 ft 131 kts 259°
2026-05-06 16:39 50.07808 19.78770 900 ft 175 kts 258°
2026-05-06 16:40 50.07557 19.76971 1048 ft 162 kts 259°
2026-05-06 16:40 50.07294 19.75314 1379 ft 155 kts 256°
2026-05-06 16:40 50.07665 19.73812 1547 ft 162 kts 330°
2026-05-06 16:40 50.08728 19.73658 1568 ft 159 kts 15°
2026-05-06 16:41 50.09461 19.74829 1577 ft 149 kts 69°
2026-05-06 16:41 50.09763 19.76279 1605 ft 145 kts 76°
2026-05-06 16:41 50.10048 19.77861 1685 ft 158 kts 73°
2026-05-06 16:41 50.10379 19.79562 1792 ft 173 kts 72°
2026-05-06 16:42 50.10707 19.81321 1799 ft 165 kts 78°
2026-05-06 16:42 50.10980 19.83053 1714 ft 166 kts 76°
2026-05-06 16:42 50.10541 19.84633 1694 ft 182 kts 162°
2026-05-06 16:42 50.09420 19.85239 1674 ft 155 kts 174°
2026-05-06 16:43 50.08527 19.84596 1475 ft 136 kts 260°
2026-05-06 16:43 50.08400 19.83162 1238 ft 132 kts 262°
2026-05-06 16:43 50.08230 19.81860 1036 ft 117 kts 262°
2026-05-06 16:43 50.08069 19.80656 903 ft 113 kts 260°
2026-05-06 16:44 50.07899 19.79430 819 ft 119 kts 259°
2026-05-06 16:44 50.07715 19.78106 913 ft 149 kts 257°
2026-05-06 16:44 50.07426 19.76309 1482 ft 190 kts 254°
2026-05-06 16:44 50.07096 19.74269 1759 ft 200 kts 253°
2026-05-06 16:45 50.06742 19.72138 1858 ft 200 kts 255°
2026-05-06 16:45 50.06418 19.70101 1890 ft 194 kts 255°
2026-05-06 16:45 50.06080 19.68076 1898 ft 191 kts 254°
2026-05-06 16:45 50.05906 19.66113 1873 ft 193 kts 280°
2026-05-06 16:46 50.06844 19.64962 1840 ft 173 kts 349°
2026-05-06 16:46 50.07984 19.64636 1797 ft 164 kts 346°
2026-05-06 16:46 50.09096 19.64874 1797 ft 166 kts 40°
2026-05-06 16:46 50.09597 19.66491 1709 ft 175 kts 75°
2026-05-06 16:47 50.09882 19.68234 1699 ft 159 kts 75°
2026-05-06 16:47 50.10165 19.69883 1634 ft 162 kts 76°
2026-05-06 16:47 50.10470 19.71658 1627 ft 174 kts 74°
2026-05-06 16:47 50.10778 19.73455 1637 ft 166 kts 76°
2026-05-06 16:48 50.11089 19.75181 1635 ft 170 kts 73°
2026-05-06 16:48 50.11380 19.77015 1634 ft 175 kts 77°
2026-05-06 16:48 50.11653 19.78851 1620 ft 167 kts 78°
2026-05-06 16:48 50.11872 19.80532 1443 ft 156 kts 81°
2026-05-06 16:49 50.12119 19.82347 1515 ft 168 kts 76°
2026-05-06 16:49 50.12342 19.83962 1506 ft 144 kts 78°
2026-05-06 16:49 50.12200 19.85431 1540 ft 150 kts 135°
2026-05-06 16:49 50.11301 19.86071 1457 ft 129 kts 167°
2026-05-06 16:50 50.10484 19.86370 1311 ft 129 kts 181°
2026-05-06 16:50 50.09616 19.85774 1327 ft 148 kts 223°
2026-05-06 16:50 50.08908 19.84667 1258 ft 142 kts 230°
2026-05-06 16:50 50.08415 19.83343 1199 ft 134 kts 260°
2026-05-06 16:51 50.08277 19.82197 987 ft 106 kts 257°
2026-05-06 16:51 50.08096 19.81040 994 ft 124 kts 261°
2026-05-06 16:51 50.07922 19.79232 1482 ft 173 kts 255°
2026-05-06 16:51 50.07658 19.77641 1517 ft 129 kts 254°
2026-05-06 16:52 50.07425 19.76357 1533 ft 128 kts 253°
2026-05-06 16:52 50.07515 19.74984 1586 ft 143 kts 315°
2026-05-06 16:52 50.08478 19.74531 1623 ft 145 kts 348°
2026-05-06 16:52 50.09472 19.74259 1721 ft 147 kts 348°
2026-05-06 16:53 50.10281 19.75123 1761 ft 165 kts 73°
2026-05-06 16:53 50.10632 19.76852 1680 ft 175 kts 70°
2026-05-06 16:53 50.11004 19.78613 1657 ft 170 kts 72°
2026-05-06 16:53 50.11430 19.80306 1537 ft 163 kts 51°
2026-05-06 16:54 50.12361 19.81008 1536 ft 153 kts 354°
2026-05-06 16:54 50.13189 19.80152 1471 ft 146 kts 291°
2026-05-06 16:54 50.13138 19.78535 1427 ft 160 kts 254°
2026-05-06 16:54 50.12827 19.76863 1477 ft 146 kts 254°
2026-05-06 16:55 50.12558 19.75445 1495 ft 132 kts 254°
2026-05-06 16:55 50.12247 19.74045 1451 ft 150 kts 233°
2026-05-06 16:55 50.11271 19.73459 1601 ft 163 kts 158°
2026-05-06 16:55 50.10783 19.75040 1620 ft 188 kts 85°
2026-05-06 16:56 50.10895 19.77087 1701 ft 177 kts 86°
2026-05-06 16:56 50.11152 19.78871 1720 ft 170 kts 76°
2026-05-06 16:56 50.11659 19.80625 1700 ft 191 kts 40°
2026-05-06 16:56 50.12926 19.80703 1677 ft 205 kts 314°
2026-05-06 16:57 50.13079 19.78876 1594 ft 177 kts 254°
2026-05-06 16:57 50.12767 19.77128 1568 ft 164 kts 254°
2026-05-06 16:57 50.12457 19.75375 1681 ft 170 kts 255°
2026-05-06 16:57 50.12155 19.73667 1720 ft 151 kts 256°
2026-05-06 16:58 50.11511 19.72397 1669 ft 171 kts 188°
2026-05-06 16:58 50.10570 19.73405 1796 ft 196 kts 112°
2026-05-06 16:58 50.10383 19.75445 1857 ft 186 kts 86°
2026-05-06 16:58 50.10684 19.77266 1751 ft 173 kts 74°
2026-05-06 16:59 50.10985 19.78946 1695 ft 147 kts 76°
2026-05-06 16:59 50.11233 19.80412 1438 ft 132 kts 74°
2026-05-06 16:59 50.11463 19.81779 1432 ft 132 kts 74°
2026-05-06 16:59 50.11684 19.83139 1596 ft 129 kts 76°
2026-05-06 17:00 50.11474 19.84577 1751 ft 152 kts 140°
2026-05-06 17:00 50.10585 19.85150 1656 ft 128 kts 166°
2026-05-06 17:00 50.09741 19.85514 1443 ft 126 kts 166°
2026-05-06 17:00 50.08827 19.85706 1464 ft 141 kts 202°
2026-05-06 17:01 50.08480 19.84565 1343 ft 118 kts 267°
2026-05-06 17:01 50.08425 19.83311 1201 ft 116 kts 261°
2026-05-06 17:01 50.08270 19.82090 1073 ft 111 kts 257°
2026-05-06 17:01 50.08110 19.80921 937 ft 107 kts 259°
2026-05-06 17:02 50.07952 19.79792 809 ft 104 kts 257°
2026-05-06 17:02 50.07828 19.78883 800 ft 71 kts 258°
2026-05-06 17:02 50.07747 19.78294 798 ft 36 kts 257°
2026-05-06 17:02 50.07677 19.78096 797 ft 12 kts 183°
2026-05-06 17:03 50.07610 19.78090 797 ft 7 kts 183°
2026-05-06 17:03 50.07595 19.78089 797 ft 0 kts 183°
2026-05-06 17:03 50.07588 19.78089 797 ft 1 kts 182°
2026-05-06 17:03 50.07556 19.78086 797 ft 5 kts 182°
2026-05-06 17:04 50.07491 19.78093 797 ft 10 kts 146°
2026-05-06 17:04 50.07477 19.78182 798 ft 9 kts 78°
2026-05-06 17:04 50.07491 19.78270 798 ft 8 kts 79°
2026-05-06 17:04 50.07501 19.78348 798 ft 6 kts 78°
2026-05-06 17:05 50.07513 19.78435 798 ft 10 kts 78°
2026-05-06 17:05 50.07524 19.78522 798 ft 7 kts 76°
2026-05-06 17:05 50.07543 19.78650 798 ft 15 kts 77°
2026-05-06 17:05 50.07562 19.78791 798 ft 12 kts 77°
2026-05-06 17:06 50.07579 19.78909 798 ft 10 kts 78°
2026-05-06 17:06 50.07597 19.79038 798 ft 11 kts 77°
2026-05-06 17:06 50.07599 19.79135 798 ft 7 kts 136°
2026-05-06 17:06 50.07538 19.79150 798 ft 7 kts 170°
2026-05-06 17:07 50.07522 19.79189 798 ft 3 kts 83°
2026-05-06 17:07 50.07527 19.79232 798 ft 3 kts 79°
2026-05-06 17:07 50.07531 19.79278 798 ft 5 kts 95°
2026-05-06 17:07 50.07502 19.79307 798 ft 6 kts 184°
2026-05-06 17:08 50.07487 19.79266 798 ft 3 kts 257°
2026-05-06 17:08 50.07485 19.79251 798 ft 0 kts 257°